Flag for Switzerland Weather past 2 weeks in Weinfelden, Thurgau, Switzerland

Now
43 °F

Low clouds.


Feels Like: 43 °F
Forecast: 32 / 47 °F
Wind: 1 mph from Northwest

Location: Konstanz

Current Time: Dec 23, 2014 at 12:50:56 AM

Latest Report: Dec 23, 2014 at 12:00 AM


Visibility: 34 mi

Pressure: 30.39 "Hg

Humidity: 58%

Dew point: 29 °F

Location of WeinfeldenLocation

Historic Weather in Weinfelden — Graph

°F

Weinfelden temperature yesterday

Maximum temperature yesterday: 46 °F (at 3:00 PM)
Minimum temperature yesterday: 35 °F (at 9:00 AM)
Average temperature yesterday: 40 °F

Past Weeks' High & Low Weather Summary

 TemperatureHumidityPressure
High54 °F (Dec 19, 2:00 PM)100% (Dec 10, 5:00 AM)30.59 "Hg (Dec 10, 5:00 AM)
Low30 °F (Dec 10, 4:00 AM)49% (Dec 13, 2:00 PM)29.85 "Hg (Dec 12, 10:00 PM)
Average42 °F81%30.18 "Hg
* Reported Dec 7 11:00 PM — Dec 22 11:00 PM, Weinfelden, Weather by CustomWeather, © 2014

Note: Actual official high and low records may vary slightly from our data, if they occured in-between our weather recording intervals... More about our weather records

Advertising

Weinfelden weather history for previous 24 hours

 ConditionsComfort  
Time TempWeatherWind HumidityBarometerVisibility
11:00 PM
Dec 22
42 °FLow clouds.2 mph62%30.40 "Hg34 mi
10:00 PM42 °FLow clouds.2 mph67%30.40 "Hg22 mi
9:00 PM42 °FLow clouds.1 mph64%30.40 "Hg17 mi
8:00 PM45 °FLow clouds.3 mph57%30.39 "Hg28 mi
7:00 PM45 °FLow clouds.5 mph56%30.37 "Hg43 mi
6:00 PM44 °FLow clouds.3 mph59%30.39 "Hg43 mi
5:00 PM44 °FPassing clouds.3 mph64%30.39 "Hg25 mi
4:00 PM45 °FPartly sunny.6 mph60%30.40 "Hg25 mi
3:00 PM46 °FOvercast.5 mph60%30.40 "Hg25 mi
2:00 PM45 °FOvercast.6 mph61%30.42 "Hg25 mi
1:00 PM42 °FOvercast.7 mph65%30.44 "Hg25 mi
12:00 PM41 °FPartly sunny.7 mph71%30.46 "Hg25 mi
11:00 AM40 °FPartly sunny.6 mph73%30.48 "Hg19 mi
10:00 AM37 °FScattered clouds.5 mph81%30.50 "Hg19 mi
9:00 AM35 °FScattered clouds.5 mph86%30.48 "Hg19 mi
8:00 AM36 °FPassing clouds.5 mph85%30.48 "Hg19 mi
7:00 AM36 °FPassing clouds.7 mph84%30.48 "Hg11 mi
6:00 AM36 °FClear.6 mph82%30.47 "Hg10 mi
5:00 AM36 °FClear.6 mph82%30.48 "Hg34 mi
4:00 AM37 °FPassing clouds.3 mph82%30.50 "Hg37 mi
3:00 AM38 °FClear.5 mph80%30.50 "Hg40 mi
2:00 AM38 °FClear.6 mph79%30.50 "Hg43 mi
1:00 AM38 °FClear.6 mph79%30.51 "Hg43 mi
12:00 AM38 °FClear.6 mph80%30.53 "Hg40 mi
Weather by CustomWeather, © 2014

See weather overviewHow to use our weather pages